DW5536 Weather Reports


time (UTC)temp
F
wind
direction
speed
knots
gust
knots
rain 1hr
in
rain 24hr
in
rain mn
in
humidity
%
barometer
mb
20260505140453 66 202 3.5 8.7 0.00 0.00 0.00 68 1010.8
20260505125023 63 237 5.2 10.4 0.00 0.01 0.00 69 1011.3
20260505123953 63 230 1.7 8.7 0.00 0.01 0.00 70 1011.3
20260505123523 63 213 1.7 8.7 0.00 0.02 0.00 71 1011.3
20260505122523 63 200 3.5 7.0 0.00 0.02 0.00 71 1011.2
20260505122023 62 217 0.0 5.2 0.00 0.02 0.00 72 1011.1
20260505121523 62 205 1.7 5.2 0.00 0.03 0.00 71 1011.1
20260505120953 62 221 0.0 3.5 0.00 0.04 0.00 72 1011.1
20260505120453 62 206 0.0 1.7 0.00 0.04 0.00 72 1011.1
20260505120023 62 206 1.7 1.7 0.00 0.04 0.00 73 1011.3
20260505115453 61 205 0.0 1.7 0.00 0.04 0.00 73 1011.3
20260505114953 61 206 0.0 1.7 0.00 0.04 0.00 73 1011.3
20260505114523 60 204 0.0 1.7 0.00 0.04 0.00 74 1011.3
20260505114022 60 204 0.0 1.7 0.00 0.04 0.00 74 1011.4
20260505113523 60 204 0.0 1.7 0.00 0.04 0.00 74 1011.4
20260505113022 60 204 1.7 1.7 0.00 0.04 0.00 74 1011.4
20260505112522 60 204 0.0 1.7 0.00 0.04 0.00 74 1011.5
20260505111522 60 204 1.7 1.7 0.00 0.04 0.00 73 1011.5
20260505110952 60 330 0.0 1.7 0.00 0.04 0.00 73 1011.4
20260505110522 61 331 0.0 3.5 0.00 0.04 0.00 72 1011.5
20260505102022 61 144 0.0 5.2 0.00 0.05 0.00 71 1010.7
20260505101522 61 240 0.0 8.7 0.00 0.05 0.00 70 1010.6
20260505101022 61 211 1.7 8.7 0.00 0.05 0.00 70 1010.4
20260505100522 61 214 3.5 10.4 0.00 0.06 0.00 70 1010.3
20260505095522 61 213 3.5 12.2 0.00 0.06 0.00 70 1010.1
20260505094522 61 229 1.7 8.7 0.00 0.06 0.00 70 1010.0
20260505094022 61 218 0.0 7.0 0.00 0.06 0.00 70 1009.9
20260505093522 61 244 0.0 8.7 0.00 0.06 0.00 70 1009.9
20260505093022 61 218 1.7 10.4 0.00 0.06 0.00 69 1009.9
20260505092022 61 199 3.5 10.4 0.00 0.07 0.00 69 1009.8
20260505091522 61 210 3.5 7.0 0.00 0.07 0.00 69 1009.8
20260505091021 62 183 3.5 10.4 0.00 0.08 0.00 69 1009.8
20260505090522 62 182 0.0 10.4 0.00 0.08 0.00 69 1009.7
20260505090022 62 182 5.2 8.7 0.00 0.08 0.00 69 1009.7
20260505085522 62 218 3.5 8.7 0.00 0.08 0.00 68 1009.7
20260505085021 62 240 0.0 7.0 0.00 0.08 0.00 68 1009.7
20260505084521 62 211 1.7 8.7 0.00 0.08 0.00 68 1009.7
20260505084021 62 218 0.0 8.7 0.00 0.08 0.00 67 1009.7
20260505083521 63 244 5.2 13.9 0.00 0.08 0.00 67 1009.6
20260505083021 63 204 0.0 13.9 0.00 0.08 0.00 67 1009.6
20260505082021 63 196 7.0 10.4 0.00 0.08 0.00 67 1009.5
20260505081451 63 218 0.0 10.4 0.00 0.08 0.00 67 1009.4
20260505081021 63 96 3.5 17.4 0.00 0.08 0.00 67 1009.2
20260505080521 63 243 0.0 17.4 0.00 0.08 0.00 66 1009.1
20260505075521 63 240 1.7 12.2 0.00 0.08 0.00 66 1009.1
20260505075021 63 226 1.7 12.2 0.00 0.08 0.00 66 1009.2
20260505074521 63 214 3.5 10.4 0.00 0.08 0.00 66 1009.2
20260505073521 64 141 5.2 19.1 0.00 0.08 0.00 65 1009.1
20260505073021 63 196 15.6 19.1 0.00 0.08 0.00 66 1009.1
20260505072521 63 218 3.5 15.6 0.00 0.08 0.00 67 1009.0
20260505071521 63 275 5.2 12.2 0.00 0.08 0.00 66 1009.1
20260505071021 63 223 3.5 13.9 0.00 0.08 0.00 66 1009.1
20260505070520 64 227 3.5 13.9 0.00 0.08 0.00 66 1009.1
20260505070020 64 203 5.2 13.9 0.00 0.08 0.00 67 1009.0
20260505065521 64 221 3.5 13.9 0.00 0.08 0.00 66 1009.1
20260505065020 64 199 8.7 13.9 0.00 0.08 0.00 66 1009.0
20260505064521 64 210 8.7 13.9 0.00 0.08 0.00 67 1008.9
20260505064020 63 202 8.7 13.9 0.00 0.08 0.00 67 1008.9
20260505063520 63 200 7.0 10.4 0.00 0.08 0.00 67 1009.0
20260505063021 63 204 3.5 10.4 0.00 0.08 0.00 67 1009.0
20260505062520 63 218 3.5 12.2 0.00 0.08 0.00 67 1009.0
20260505062020 63 220 1.7 12.2 0.00 0.08 0.00 67 1009.1
20260505061520 63 175 1.7 10.4 0.00 0.08 0.00 67 1009.2
20260505061020 63 207 1.7 8.7 0.00 0.08 0.00 67 1009.2
20260505060520 63 193 1.7 7.0 0.00 0.08 0.00 67 1009.2
20260505060020 63 202 3.5 8.7 0.00 0.08 0.00 67 1009.2
20260505055520 63 233 1.7 8.7 0.00 0.08 0.00 67 1009.2
20260505054520 64 252 3.5 8.7 0.00 0.08 0.00 66 1009.1
20260505053020 64 220 3.5 12.2 0.00 0.08 0.00 65 1009.1
20260505052020 64 220 5.2 13.9 0.00 0.08 0.00 65 1009.2
20260505051520 64 188 5.2 13.9 0.00 0.08 0.00 66 1009.3
20260505051020 63 226 8.7 13.9 0.00 0.08 0.00 66 1009.2
20260505050520 63 190 3.5 10.4 0.00 0.08 0.00 66 1009.2
20260505041020 64 207 1.7 5.2 0.00 0.08 0.00 68 1009.3
20260505040020 64 194 1.7 5.2 0.00 0.08 0.00 67 1009.3
20260505035520 64 207 3.5 5.2 0.00 0.08 0.08 68 1009.1
20260505035020 64 225 0.0 5.2 0.00 0.08 0.08 68 1009.1
20260505034519 64 204 3.5 5.2 0.00 0.08 0.08 68 1009.0
20260505034019 64 206 0.0 5.2 0.00 0.08 0.08 68 1009.0
20260505033520 64 193 1.7 5.2 0.00 0.08 0.08 69 1009.0
20260505032519 64 207 0.0 7.0 0.00 0.08 0.08 69 1009.0
20260505032019 63 209 1.7 7.0 0.00 0.08 0.08 69 1008.8
20260505031519 63 194 1.7 3.5 0.00 0.08 0.08 70 1008.8
20260505031019 63 200 1.7 3.5 0.00 0.08 0.08 70 1008.8
20260505030519 63 117 0.0 1.7 0.00 0.08 0.08 70 1008.8
20260505030019 63 100 0.0 3.5 0.00 0.08 0.08 70 1008.6
20260505025519 63 100 0.0 7.0 0.00 0.08 0.08 70 1008.4
20260505025019 63 219 0.0 7.0 0.00 0.08 0.08 70 1008.2
20260505024519 63 183 0.0 3.5 0.00 0.08 0.08 71 1008.2
20260505024019 62 207 0.0 3.5 0.00 0.08 0.08 72 1008.2
20260505023519 62 204 1.7 3.5 0.00 0.08 0.08 73 1008.1
20260505023019 62 268 0.0 0.0 0.00 0.08 0.08 73 1008.0
20260505022519 63 268 0.0 0.0 0.00 0.08 0.08 72 1007.9
20260505022019 63 268 0.0 1.7 0.00 0.08 0.08 71 1007.6
20260505021519 63 268 0.0 1.7 0.00 0.08 0.08 71 1007.6
20260505021019 63 268 0.0 1.7 0.00 0.08 0.08 71 1007.4
20260505020019 63 216 0.0 1.7 0.00 0.08 0.08 71 1007.2
20260505015519 64 216 0.0 1.7 0.00 0.08 0.08 71 1007.1
20260505015019 64 216 0.0 0.0 0.00 0.08 0.08 70 1007.2
20260505014519 64 216 0.0 0.0 0.00 0.08 0.08 69 1007.2
20260505014019 65 216 0.0 5.2 0.00 0.08 0.08 68 1007.1
20260505013519 65 216 0.0 5.2 0.00 0.08 0.08 68 1007.1
20260505012519 65 213 0.0 1.7 0.00 0.08 0.08 68 1007.1
20260505012019 65 213 0.0 1.7 0.00 0.08 0.08 67 1007.2
20260505011519 66 166 0.0 0.0 0.00 0.08 0.08 66 1007.3
20260505011019 67 166 0.0 0.0 0.00 0.08 0.08 65 1007.2
20260505010518 67 166 0.0 1.7 0.00 0.08 0.08 64 1007.2
20260505010019 68 166 0.0 1.7 0.00 0.08 0.08 63 1007.2
20260505005519 69 166 0.0 1.7 0.00 0.08 0.08 62 1007.2
20260505005018 70 209 0.0 5.2 0.00 0.08 0.08 61 1007.2
20260505003518 71 217 3.5 5.2 0.00 0.08 0.08 58 1007.2
20260505003018 71 259 0.0 7.0 0.00 0.08 0.08 57 1007.2
20260505002518 72 198 0.0 10.4 0.00 0.08 0.08 57 1007.1
20260505002018 72 226 3.5 10.4 0.00 0.08 0.08 57 1007.1
20260505001518 72 226 8.7 10.4 0.00 0.08 0.08 56 1007.1
20260505001019 73 210 1.7 10.4 0.00 0.08 0.08 56 1007.1
20260505000518 73 232 10.4 10.4 0.00 0.08 0.08 55 1007.2
20260505000018 73 206 0.0 12.2 0.00 0.08 0.08 55 1007.3
20260504235519 74 206 1.7 12.2 0.00 0.08 0.08 54 1007.3
20260504235019 74 218 5.2 12.2 0.00 0.08 0.08 53 1007.3
20260504234518 74 193 3.5 12.2 0.00 0.08 0.08 54 1007.4
20260504234018 74 179 1.7 10.4 0.00 0.08 0.08 54 1007.6
20260504233518 75 234 3.5 10.4 0.00 0.08 0.08 54 1007.8
20260504233018 75 185 3.5 10.4 0.00 0.08 0.08 54 1007.9
20260504232518 75 185 3.5 10.4 0.00 0.08 0.08 53 1008.0
20260504231018 76 208 5.2 12.2 0.00 0.08 0.08 51 1008.1
20260504230518 77 231 3.5 13.9 0.00 0.08 0.08 51 1008.2
20260504230018 77 199 10.4 27.8 0.00 0.08 0.08 51 1008.2
20260504225518 77 218 5.2 27.8 0.00 0.08 0.08 50 1008.3
20260504225018 77 175 12.2 17.4 0.00 0.08 0.08 50 1008.2
20260504224018 78 274 1.7 19.1 0.00 0.08 0.08 49 1008.2
20260504223518 78 185 12.2 17.4 0.00 0.08 0.08 50 1008.3
20260504223018 77 203 8.7 10.4 0.00 0.08 0.08 50 1008.4
20260504222518 77 214 10.4 19.1 0.00 0.08 0.08 50 1008.5
20260504222017 77 213 7.0 19.1 0.00 0.08 0.08 49 1008.5
20260504221518 77 224 5.2 20.9 0.00 0.08 0.08 50 1008.4
20260504221017 77 241 1.7 20.9 0.00 0.08 0.08 48 1008.5
20260504220518 77 203 3.5 15.6 0.00 0.08 0.08 48 1008.5
20260504220017 78 183 10.4 17.4 0.00 0.08 0.08 48 1008.7
20260504215517 78 130 7.0 17.4 0.00 0.08 0.08 47 1008.5
20260504215017 78 222 3.5 10.4 0.00 0.08 0.08 51 1008.6
20260504214518 78 208 1.7 12.2 0.00 0.08 0.08 49 1008.7
20260504214017 78 289 3.5 13.9 0.00 0.08 0.08 47 1008.7
20260504213518 78 318 5.2 20.9 0.00 0.08 0.08 46 1008.8
20260504213017 79 207 7.0 20.9 0.00 0.08 0.08 48 1008.7
20260504212517 79 133 8.7 22.6 0.00 0.08 0.08 47 1008.7
20260504212017 79 221 3.5 22.6 0.00 0.08 0.08 47 1008.7
20260504211517 79 204 12.2 17.4 0.00 0.08 0.08 46 1008.7
20260504211017 79 269 7.0 15.6 0.00 0.08 0.08 49 1008.7
20260504205517 80 218 3.5 17.4 0.00 0.08 0.08 48 1008.9
20260504205017 80 217 5.2 17.4 0.00 0.08 0.08 46 1008.7
20260504204017 80 342 3.5 13.9 0.00 0.08 0.08 49 1008.8
20260504203517 80 235 12.2 20.9 0.00 0.08 0.08 49 1008.8
20260504203017 79 208 1.7 20.9 0.00 0.08 0.08 50 1008.9
20260504202517 79 241 3.5 17.4 0.00 0.08 0.08 48 1008.9
20260504202017 79 229 7.0 15.6 0.00 0.08 0.08 48 1009.0
20260504201517 80 164 8.7 15.6 0.00 0.08 0.08 46 1009.1
20260504201017 80 278 5.2 12.2 0.00 0.08 0.08 49 1009.2
20260504200517 79 359 5.2 15.6 0.00 0.08 0.08 50 1009.1
20260504200017 80 325 7.0 22.6 0.00 0.08 0.08 50 1009.3
20260504195516 80 207 10.4 22.6 0.00 0.08 0.08 49 1009.5
20260504194517 79 280 3.5 17.4 0.00 0.08 0.08 51 1009.7
20260504194016 79 275 8.7 20.9 0.00 0.08 0.08 50 1009.6
20260504193516 79 207 7.0 20.9 0.00 0.08 0.08 51 1009.7
20260504193017 79 206 15.6 19.1 0.00 0.08 0.08 49 1009.9
20260504192516 79 278 5.2 19.1 0.00 0.08 0.08 51 1009.9
20260504192016 79 200 3.5 19.1 0.00 0.08 0.08 54 1010.1
20260504191516 78 227 5.2 19.1 0.00 0.08 0.08 52 1010.1
20260504191016 78 287 1.7 15.6 0.00 0.08 0.08 53 1010.2
20260504190516 77 193 5.2 15.6 0.00 0.08 0.08 55 1010.3
20260504190016 77 208 7.0 10.4 0.00 0.08 0.08 52 1010.3
20260504185516 77 192 7.0 13.9 0.00 0.08 0.08 56 1010.4
20260504185016 77 197 10.4 13.9 0.00 0.08 0.08 54 1010.3
20260504184016 78 242 3.5 13.9 0.00 0.08 0.08 54 1010.4
20260504183516 78 235 7.0 13.9 0.00 0.08 0.08 52 1010.2
20260504183016 78 217 10.4 12.2 0.00 0.08 0.08 56 1010.3
20260504182516 77 131 3.5 13.9 0.00 0.08 0.08 54 1010.3
20260504182016 77 273 5.2 13.9 0.00 0.08 0.08 55 1010.2
20260504181516 77 297 7.0 12.2 0.00 0.08 0.08 55 1010.3
20260504181016 77 233 12.2 13.9 0.00 0.08 0.08 54 1010.3
20260504180016 77 303 5.2 15.6 0.00 0.08 0.08 55 1010.2
20260504175516 76 209 1.7 13.9 0.00 0.08 0.08 55 1010.2
20260504175016 76 109 0.0 13.9 0.00 0.08 0.08 56 1010.3
20260504174515 75 234 3.5 13.9 0.00 0.08 0.08 57 1010.3
20260504174016 75 254 3.5 13.9 0.00 0.08 0.08 56 1010.3
20260504173516 75 238 3.5 13.9 0.00 0.08 0.08 57 1010.4
20260504173016 75 193 12.2 15.6 0.00 0.08 0.08 56 1010.5
20260504172516 74 273 5.2 15.6 0.00 0.08 0.08 60 1010.5
20260504172016 74 226 5.2 12.2 0.00 0.08 0.08 57 1010.6
20260504171515 73 221 5.2 24.3 0.00 0.08 0.08 57 1010.6
20260504171016 73 200 3.5 24.3 0.00 0.08 0.08 56 1010.7
20260504170516 73 195 7.0 12.2 0.00 0.08 0.08 56 1010.8
20260504151015 60 216 7.0 13.9 0.00 0.08 0.08 76 1011.1
20260504150515 60 186 1.7 13.9 0.00 0.08 0.08 78 1011.3